Time,TemperatureF,DewpointF,PressureIn,WindDirection,WindDirectionDegrees,WindSpeedMPH,WindSpeedGustMPH,Humidity,HourlyPrecipIn,Conditions,Clouds,dailyrainin,SoftwareType,DateUTC
2013-01-20 00:02:00,34.0,23.0,30.03,WSW,258,6.0,16.0,63,0.00,,,0.00,,2013-01-20 06:02:00,
2013-01-20 00:12:00,34.0,23.0,30.03,WSW,258,6.0,16.0,63,0.00,,,0.00,,2013-01-20 06:12:00,
2013-01-20 00:22:00,33.0,24.0,30.05,NE,46,9.0,21.0,68,0.00,,,0.00,,2013-01-20 06:22:00,
2013-01-20 00:33:00,31.0,22.0,30.07,WNW,291,6.0,15.0,70,0.00,,,0.00,,2013-01-20 06:33:00,
2013-01-20 00:42:00,31.0,22.0,30.07,WNW,291,6.0,15.0,70,0.00,,,0.00,,2013-01-20 06:42:00,
2013-01-20 00:52:00,30.0,20.0,30.08,West,275,9.0,17.0,67,0.00,,,0.00,,2013-01-20 06:52:00,
2013-01-20 01:02:00,29.0,20.0,30.09,WNW,296,6.0,16.0,68,0.00,,,0.00,,2013-01-20 07:02:00,
2013-01-20 01:12:00,29.0,20.0,30.09,WNW,296,6.0,16.0,68,0.00,,,0.00,,2013-01-20 07:12:00,
2013-01-20 01:22:00,28.0,13.0,30.09,NW,312,9.0,19.0,52,0.00,,,0.00,,2013-01-20 07:22:00,
2013-01-20 01:32:00,26.0,10.0,30.11,WSW,251,9.0,24.0,51,0.00,,,0.00,,2013-01-20 07:32:00,
2013-01-20 01:42:00,26.0,10.0,30.11,WSW,251,9.0,24.0,51,0.00,,,0.00,,2013-01-20 07:42:00,
2013-01-20 01:52:00,26.0,10.0,30.11,WSW,251,9.0,24.0,51,0.00,,,0.00,,2013-01-20 07:52:00,
2013-01-20 02:02:00,26.0,10.0,30.11,WSW,251,9.0,24.0,51,0.00,,,0.00,,2013-01-20 08:02:00,
2013-01-20 02:22:00,23.0,10.0,30.15,West,274,6.0,12.0,56,0.00,,,0.00,,2013-01-20 08:22:00,
2013-01-20 02:32:00,23.0,11.0,30.14,NW,312,5.0,13.0,59,0.00,,,0.00,,2013-01-20 08:32:00,
2013-01-20 02:42:00,23.0,11.0,30.14,NW,312,5.0,13.0,59,0.00,,,0.00,,2013-01-20 08:42:00,
2013-01-20 02:52:00,22.0,9.0,30.15,West,274,6.0,14.0,57,0.00,,,0.00,,2013-01-20 08:52:00,
2013-01-20 03:02:00,22.0,10.0,30.16,WNW,286,5.0,11.0,59,0.00,,,0.00,,2013-01-20 09:02:00,
2013-01-20 03:12:00,22.0,10.0,30.16,WNW,286,5.0,11.0,59,0.00,,,0.00,,2013-01-20 09:12:00,
2013-01-20 03:22:00,21.0,10.0,30.16,SW,236,6.0,11.0,61,0.00,,,0.00,,2013-01-20 09:22:00,
2013-01-20 03:33:00,21.0,8.0,30.18,NNW,330,7.0,18.0,56,0.00,,,0.00,,2013-01-20 09:33:00,
2013-01-20 03:42:00,21.0,8.0,30.18,NNW,330,7.0,18.0,56,0.00,,,0.00,,2013-01-20 09:42:00,
2013-01-20 03:52:00,20.0,8.0,30.18,NW,305,6.0,13.0,58,0.00,,,0.00,,2013-01-20 09:52:00,
2013-01-20 04:02:00,20.0,9.0,30.18,WNW,300,3.0,10.0,63,0.00,,,0.00,,2013-01-20 10:02:00,
2013-01-20 04:12:00,20.0,9.0,30.18,WNW,300,3.0,10.0,63,0.00,,,0.00,,2013-01-20 10:12:00,
2013-01-20 04:22:00,20.0,10.0,30.19,WSW,245,8.0,14.0,65,0.00,,,0.00,,2013-01-20 10:22:00,
2013-01-20 04:32:00,18.0,7.0,30.20,WNW,295,6.0,15.0,61,0.00,,,0.00,,2013-01-20 10:32:00,
2013-01-20 04:42:00,18.0,7.0,30.20,WNW,295,6.0,15.0,61,0.00,,,0.00,,2013-01-20 10:42:00,
2013-01-20 04:52:00,18.0,8.0,30.22,SSW,210,4.0,10.0,65,0.00,,,0.00,,2013-01-20 10:52:00,
2013-01-20 05:02:00,18.0,8.0,30.23,NW,312,6.0,15.0,65,0.00,,,0.00,,2013-01-20 11:02:00,
2013-01-20 05:12:00,18.0,8.0,30.23,NW,312,6.0,15.0,65,0.00,,,0.00,,2013-01-20 11:12:00,
2013-01-20 05:22:00,17.0,7.0,30.23,West,273,4.0,14.0,65,0.00,,,0.00,,2013-01-20 11:22:00,
2013-01-20 05:33:00,17.0,8.0,30.24,WNW,288,4.0,12.0,66,0.00,,,0.00,,2013-01-20 11:33:00,
2013-01-20 05:42:00,17.0,8.0,30.24,WNW,288,4.0,12.0,66,0.00,,,0.00,,2013-01-20 11:42:00,
2013-01-20 05:53:00,17.0,8.0,30.26,WNW,288,2.0,10.0,66,0.00,,,0.00,,2013-01-20 11:53:00,
2013-01-20 06:03:00,16.0,7.0,30.26,NW,311,4.0,12.0,67,0.00,,,0.00,,2013-01-20 12:03:00,
2013-01-20 06:12:00,16.0,7.0,30.26,NW,311,4.0,12.0,67,0.00,,,0.00,,2013-01-20 12:12:00,
2013-01-20 06:23:00,16.0,8.0,30.26,NW,326,5.0,12.0,69,0.00,,,0.00,,2013-01-20 12:23:00,
2013-01-20 06:33:00,16.0,8.0,30.26,West,275,4.0,11.0,71,0.00,,,0.00,,2013-01-20 12:33:00,
2013-01-20 06:43:00,16.0,8.0,30.26,West,275,4.0,11.0,71,0.00,,,0.00,,2013-01-20 12:43:00,
2013-01-20 06:52:00,16.0,8.0,30.26,West,275,4.0,11.0,71,0.00,,,0.00,,2013-01-20 12:52:00,
2013-01-20 07:03:00,15.0,7.0,30.28,NW,306,5.0,15.0,70,0.00,,,0.00,,2013-01-20 13:03:00,
2013-01-20 07:12:00,15.0,7.0,30.28,NW,306,5.0,15.0,70,0.00,,,0.00,,2013-01-20 13:12:00,
2013-01-20 07:23:00,15.0,7.0,30.29,NW,304,4.0,9.0,70,0.00,,,0.00,,2013-01-20 13:23:00,
2013-01-20 07:33:00,14.0,6.0,30.29,NW,325,4.0,9.0,70,0.00,,,0.00,,2013-01-20 13:33:00,
2013-01-20 07:43:00,14.0,6.0,30.29,NW,325,4.0,9.0,70,0.00,,,0.00,,2013-01-20 13:43:00,
2013-01-20 07:52:00,14.0,6.0,30.29,West,268,4.0,9.0,70,0.00,,,0.00,,2013-01-20 13:52:00,
2013-01-20 08:02:00,15.0,8.0,30.30,NW,322,3.0,8.0,72,0.00,,,0.00,,2013-01-20 14:02:00,
2013-01-20 08:12:00,15.0,8.0,30.30,NW,322,3.0,8.0,72,0.00,,,0.00,,2013-01-20 14:12:00,
2013-01-20 08:23:00,16.0,9.0,30.31,NW,309,2.0,9.0,72,0.00,,,0.00,,2013-01-20 14:23:00,
2013-01-20 08:33:00,16.0,9.0,30.31,NW,309,2.0,9.0,72,0.00,,,0.00,,2013-01-20 14:33:00,
2013-01-20 08:43:00,16.0,9.0,30.31,NW,309,2.0,9.0,72,0.00,,,0.00,,2013-01-20 14:43:00,
2013-01-20 08:53:00,15.0,6.0,30.31,WSW,241,3.0,9.0,68,0.00,,,0.00,,2013-01-20 14:53:00,
2013-01-20 09:03:00,16.0,7.0,30.30,NW,311,2.0,8.0,68,0.00,,,0.00,,2013-01-20 15:03:00,
2013-01-20 09:12:00,16.0,7.0,30.30,NW,311,2.0,8.0,68,0.00,,,0.00,,2013-01-20 15:12:00,
2013-01-20 09:23:00,16.0,7.0,30.30,WNW,298,3.0,8.0,66,0.00,,,0.00,,2013-01-20 15:23:00,
2013-01-20 09:33:00,16.0,6.0,30.32,WNW,297,3.0,11.0,65,0.00,,,0.00,,2013-01-20 15:33:00,
2013-01-20 09:42:00,16.0,6.0,30.32,WNW,297,3.0,11.0,65,0.00,,,0.00,,2013-01-20 15:42:00,
2013-01-20 09:52:00,17.0,7.0,30.32,NE,42,3.0,14.0,64,0.00,,,0.00,,2013-01-20 15:52:00,
2013-01-20 10:03:00,17.0,7.0,30.33,WNW,300,3.0,8.0,63,0.00,,,0.00,,2013-01-20 16:03:00,
2013-01-20 10:12:00,17.0,7.0,30.33,WNW,300,3.0,8.0,63,0.00,,,0.00,,2013-01-20 16:12:00,
2013-01-20 10:23:00,18.0,8.0,30.33,NW,313,3.0,10.0,63,0.00,,,0.00,,2013-01-20 16:23:00,
2013-01-20 10:33:00,19.0,8.0,30.33,NNE,13,4.0,11.0,62,0.00,,,0.00,,2013-01-20 16:33:00,
2013-01-20 10:43:00,19.0,8.0,30.33,NNE,13,4.0,11.0,62,0.00,,,0.00,,2013-01-20 16:43:00,
2013-01-20 10:52:00,19.0,9.0,30.33,West,277,3.0,10.0,63,0.00,,,0.00,,2013-01-20 16:52:00,
2013-01-20 11:03:00,20.0,9.0,30.33,SW,232,2.0,5.0,61,0.00,,,0.00,,2013-01-20 17:03:00,
2013-01-20 11:12:00,20.0,9.0,30.33,SW,232,2.0,5.0,61,0.00,,,0.00,,2013-01-20 17:12:00,
2013-01-20 11:22:00,20.0,9.0,30.32,West,275,3.0,7.0,61,0.00,,,0.00,,2013-01-20 17:22:00,
2013-01-20 11:33:00,20.0,10.0,30.33,WSW,257,3.0,7.0,64,0.00,,,0.00,,2013-01-20 17:33:00,
2013-01-20 11:42:00,20.0,10.0,30.33,WSW,257,3.0,7.0,64,0.00,,,0.00,,2013-01-20 17:42:00,
2013-01-20 11:52:00,21.0,10.0,30.32,NNW,348,4.0,8.0,62,0.00,,,0.00,,2013-01-20 17:52:00,
2013-01-20 12:03:00,21.0,10.0,30.31,West,280,2.0,7.0,63,0.00,,,0.00,,2013-01-20 18:03:00,
2013-01-20 12:13:00,21.0,10.0,30.31,West,280,2.0,7.0,63,0.00,,,0.00,,2013-01-20 18:13:00,
2013-01-20 12:23:00,21.0,10.0,30.31,West,280,2.0,7.0,63,0.00,,,0.00,,2013-01-20 18:23:00,
2013-01-20 12:33:00,22.0,9.0,30.30,West,278,3.0,8.0,57,0.00,,,0.00,,2013-01-20 18:33:00,
2013-01-20 12:43:00,22.0,9.0,30.30,West,278,3.0,8.0,57,0.00,,,0.00,,2013-01-20 18:43:00,
2013-01-20 12:53:00,22.0,8.0,30.30,NW,318,4.0,8.0,55,0.00,,,0.00,,2013-01-20 18:53:00,
2013-01-20 13:02:00,21.0,8.0,30.30,West,277,3.0,7.0,57,0.00,,,0.00,,2013-01-20 19:02:00,
2013-01-20 13:12:00,21.0,8.0,30.30,West,277,3.0,7.0,57,0.00,,,0.00,,2013-01-20 19:12:00,
2013-01-20 13:22:00,22.0,10.0,30.30,West,267,4.0,9.0,59,0.00,,,0.00,,2013-01-20 19:22:00,
2013-01-20 13:33:00,21.0,9.0,30.30,West,281,5.0,9.0,59,0.00,,,0.00,,2013-01-20 19:33:00,
2013-01-20 13:43:00,21.0,9.0,30.30,West,281,5.0,9.0,59,0.00,,,0.00,,2013-01-20 19:43:00,
2013-01-20 13:52:00,21.0,9.0,30.30,NNE,24,3.0,7.0,58,0.00,,,0.00,,2013-01-20 19:52:00,
2013-01-20 14:03:00,21.0,9.0,30.29,WNW,302,4.0,9.0,60,0.00,,,0.00,,2013-01-20 20:03:00,
2013-01-20 14:12:00,21.0,9.0,30.29,WNW,302,4.0,9.0,60,0.00,,,0.00,,2013-01-20 20:12:00,
2013-01-20 14:23:00,21.0,9.0,30.30,West,267,3.0,9.0,58,0.00,,,0.00,,2013-01-20 20:23:00,
2013-01-20 14:33:00,21.0,9.0,30.30,NW,305,3.0,10.0,58,0.00,,,0.00,,2013-01-20 20:33:00,
2013-01-20 14:42:00,21.0,9.0,30.30,NW,305,3.0,10.0,58,0.00,,,0.00,,2013-01-20 20:42:00,
2013-01-20 14:53:00,21.0,9.0,30.30,WNW,284,2.0,8.0,59,0.00,,,0.00,,2013-01-20 20:53:00,
2013-01-20 15:03:00,21.0,9.0,30.30,West,265,3.0,7.0,59,0.00,,,0.00,,2013-01-20 21:03:00,
2013-01-20 15:13:00,21.0,9.0,30.30,West,265,3.0,7.0,59,0.00,,,0.00,,2013-01-20 21:13:00,
2013-01-20 15:23:00,21.0,9.0,30.30,WNW,284,3.0,8.0,59,0.00,,,0.00,,2013-01-20 21:23:00,
2013-01-20 15:33:00,21.0,9.0,30.30,NW,310,3.0,10.0,59,0.00,,,0.00,,2013-01-20 21:33:00,
2013-01-20 15:43:00,21.0,9.0,30.30,NW,310,3.0,10.0,59,0.00,,,0.00,,2013-01-20 21:43:00,
2013-01-20 15:53:00,21.0,9.0,30.30,West,279,3.0,8.0,60,0.00,,,0.00,,2013-01-20 21:53:00,
2013-01-20 16:03:00,21.0,9.0,30.31,WNW,289,5.0,10.0,58,0.00,,,0.00,,2013-01-20 22:03:00,
2013-01-20 16:13:00,21.0,9.0,30.31,WNW,289,5.0,10.0,58,0.00,,,0.00,,2013-01-20 22:13:00,
2013-01-20 16:22:00,20.0,8.0,30.30,WNW,298,3.0,8.0,59,0.00,,,0.00,,2013-01-20 22:22:00,
2013-01-20 16:33:00,20.0,8.0,30.30,WNW,294,3.0,8.0,60,0.00,,,0.00,,2013-01-20 22:33:00,
2013-01-20 16:43:00,20.0,8.0,30.30,WNW,294,3.0,8.0,60,0.00,,,0.00,,2013-01-20 22:43:00,
2013-01-20 16:52:00,20.0,9.0,30.30,WNW,284,2.0,8.0,61,0.00,,,0.00,,2013-01-20 22:52:00,
2013-01-20 17:03:00,20.0,9.0,30.30,NW,310,2.0,7.0,63,0.00,,,0.00,,2013-01-20 23:03:00,
2013-01-20 17:13:00,20.0,9.0,30.30,NW,310,2.0,7.0,63,0.00,,,0.00,,2013-01-20 23:13:00,
2013-01-20 17:23:00,20.0,9.0,30.30,WNW,297,3.0,11.0,63,0.00,,,0.00,,2013-01-20 23:23:00,
2013-01-20 17:33:00,19.0,9.0,30.30,NW,306,2.0,6.0,64,0.00,,,0.00,,2013-01-20 23:33:00,
2013-01-20 17:43:00,19.0,9.0,30.30,NW,306,2.0,6.0,64,0.00,,,0.00,,2013-01-20 23:43:00,
2013-01-20 17:53:00,19.0,9.0,30.30,West,276,2.0,6.0,65,0.00,,,0.00,,2013-01-20 23:53:00,
2013-01-20 18:03:00,19.0,9.0,30.31,WSW,257,3.0,7.0,64,0.00,,,0.00,,2013-01-21 00:03:00,
2013-01-20 18:13:00,19.0,9.0,30.31,WSW,257,3.0,7.0,64,0.00,,,0.00,,2013-01-21 00:13:00,
2013-01-20 18:23:00,19.0,9.0,30.31,WSW,249,3.0,8.0,65,0.00,,,0.00,,2013-01-21 00:23:00,
2013-01-20 18:33:00,19.0,9.0,30.30,WNW,288,4.0,8.0,65,0.00,,,0.00,,2013-01-21 00:33:00,
2013-01-20 18:43:00,19.0,9.0,30.30,WNW,288,4.0,8.0,65,0.00,,,0.00,,2013-01-21 00:43:00,
2013-01-20 18:53:00,18.0,9.0,30.31,WSW,242,4.0,9.0,67,0.00,,,0.00,,2013-01-21 00:53:00,
2013-01-20 19:03:00,18.0,9.0,30.31,WNW,293,4.0,9.0,68,0.00,,,0.00,,2013-01-21 01:03:00,
2013-01-20 19:13:00,18.0,9.0,30.31,WNW,293,4.0,9.0,68,0.00,,,0.00,,2013-01-21 01:13:00,
2013-01-20 19:23:00,18.0,10.0,30.31,NNW,328,4.0,7.0,70,0.00,,,0.00,,2013-01-21 01:23:00,
2013-01-20 19:33:00,18.0,11.0,30.31,WNW,290,1.0,7.0,72,0.00,,,0.00,,2013-01-21 01:33:00,
2013-01-20 19:43:00,18.0,11.0,30.31,WNW,290,1.0,7.0,72,0.00,,,0.00,,2013-01-21 01:43:00,
2013-01-20 19:52:00,17.0,10.0,30.31,WNW,286,2.0,7.0,72,0.00,,,0.00,,2013-01-21 01:52:00,
2013-01-20 20:03:00,17.0,10.0,30.31,NW,306,3.0,8.0,73,0.00,,,0.00,,2013-01-21 02:03:00,
2013-01-20 20:12:00,17.0,10.0,30.31,NW,306,3.0,8.0,73,0.00,,,0.00,,2013-01-21 02:12:00,
2013-01-20 20:23:00,17.0,10.0,30.30,WSW,250,2.0,6.0,74,0.00,,,0.00,,2013-01-21 02:23:00,
2013-01-20 20:33:00,17.0,10.0,30.30,NNE,30,3.0,8.0,75,0.00,,,0.00,,2013-01-21 02:33:00,
2013-01-20 20:43:00,17.0,10.0,30.30,NNE,30,3.0,8.0,75,0.00,,,0.00,,2013-01-21 02:43:00,
2013-01-20 20:53:00,17.0,11.0,30.30,WNW,295,2.0,10.0,76,0.00,,,0.00,,2013-01-21 02:53:00,
2013-01-20 21:03:00,17.0,11.0,30.29,WNW,294,3.0,5.0,77,0.00,,,0.00,,2013-01-21 03:03:00,
2013-01-20 21:13:00,17.0,11.0,30.29,WNW,294,3.0,5.0,77,0.00,,,0.00,,2013-01-21 03:13:00,
2013-01-20 21:23:00,17.0,11.0,30.30,WNW,295,2.0,5.0,77,0.00,,,0.00,,2013-01-21 03:23:00,
2013-01-20 21:33:00,17.0,11.0,30.30,WSW,250,1.0,5.0,77,0.00,,,0.00,,2013-01-21 03:33:00,
2013-01-20 21:43:00,17.0,11.0,30.30,WSW,250,1.0,5.0,77,0.00,,,0.00,,2013-01-21 03:43:00,
2013-01-20 21:52:00,17.0,11.0,30.29,WNW,290,1.0,5.0,78,0.00,,,0.00,,2013-01-21 03:52:00,
2013-01-20 22:03:00,17.0,12.0,30.29,NW,305,2.0,7.0,79,0.00,,,0.00,,2013-01-21 04:03:00,
2013-01-20 22:12:00,17.0,12.0,30.29,NW,305,2.0,7.0,79,0.00,,,0.00,,2013-01-21 04:12:00,
2013-01-20 22:23:00,17.0,11.0,30.29,NW,316,2.0,6.0,78,0.00,,,0.00,,2013-01-21 04:23:00,
2013-01-20 22:33:00,17.0,11.0,30.29,WNW,283,1.0,7.0,76,0.00,,,0.00,,2013-01-21 04:33:00,
2013-01-20 22:43:00,17.0,11.0,30.29,WNW,283,1.0,7.0,76,0.00,,,0.00,,2013-01-21 04:43:00,
2013-01-20 22:53:00,17.0,10.0,30.29,NW,308,1.0,7.0,75,0.00,,,0.00,,2013-01-21 04:53:00,
2013-01-20 23:03:00,17.0,11.0,30.29,WNW,286,2.0,6.0,78,0.00,,,0.00,,2013-01-21 05:03:00,
2013-01-20 23:12:00,17.0,11.0,30.29,WNW,286,2.0,6.0,78,0.00,,,0.00,,2013-01-21 05:12:00,
2013-01-20 23:22:00,16.0,10.0,30.28,NW,312,2.0,8.0,76,0.00,,,0.00,,2013-01-21 05:22:00,
2013-01-20 23:34:00,16.0,10.0,30.29,West,274,2.0,7.0,77,0.00,,,0.00,,2013-01-21 05:34:00,
2013-01-20 23:42:00,16.0,10.0,30.29,West,274,2.0,7.0,77,0.00,,,0.00,,2013-01-21 05:42:00,
2013-01-20 23:52:00,17.0,11.0,30.28,WNW,296,3.0,10.0,78,0.00,,,0.00,,2013-01-21 05:52:00,